Location: Ladrillo (historical)
(32.8195°N, 117.2231°W)
Time: 20:48:07
(UTC+00:00)

MINOTAUR 4 R/B - Pass Details

Date: 01 October 2022
Orbit: 458 x 464 km, 98.0° (Epoch: 06 December)

Event Time Altitude Azimuth Distance (km) Brightness Sun altitude
Rises 12:46:12 0° 159° (SSE) 2,495 7.9 -12.8°
Reaches altitude 10° 12:48:15 10° 155° (SSE) 1,624 7.0 -12.4°
Maximum altitude 12:51:40 57° 76° (ENE) 561 4.7 -11.6°
Drops below altitude 10° 12:55:07 10° 357° (N) 1,638 6.7 -10.9°
Sets 12:57:12 0° 353° (N) 2,519 7.7 -10.5°
